Weather History for KMGN - January, 2011

Change the Weather History Date:

Thursday, January 20, 2011

  Actual Average (KPLN) Record (KPLN)
Temperature  
Mean Temperature 16 °F -  
Max Temperature 23 °F 26 °F 39 °F (1993)
Min Temperature 8 °F 4 °F -23 °F (1970)
Degree Days  
Heating Degree Days 50    
Moisture  
Dew Point 11 °F    
Average Humidity 80    
Maximum Humidity 86    
Minimum Humidity 73    
Precipitation  
Precipitation 0.00 in - - ()
Sea Level Pressure  
Sea Level Pressure 29.92 in    
Wind  
Wind Speed 5 mph (SSE)    
Max Wind Speed 15 mph    
Max Gust Speed 21 mph    
Visibility 6 miles    
Events Snow    
Averages and records for this station are not official NWS values.
T = Trace of Precipitation, MM = Missing Value Source: NWS Daily Summary

Daily Weather History Graph

Daily Weather History Graph

Search for Another Location

Airport or City:

Trip Planner

Search our weather history database for the weather conditions in past years. The results will help you decide how hot, cold, wet, or windy it might be!

Date:

Astronomy

Jan. 20, 2011 Rise Set
Actual Time 8:12 AM EST 5:29 PM EST
Civil Twilight 7:39 AM EST 6:01 PM EST
Nautical Twilight 7:03 AM EST 6:38 PM EST
Astronomical Twilight 6:28 AM EST 7:13 PM EST
Moon 6:56 PM EST (1/20) 8:26 AM EST (1/20)
Length of Visible Light 10h 22m
Length of Day
9h 16m
Full, 99% of the Moon is Illuminated
Jan 20
Full
Jan 26
Last Quarter
Feb 2
New
Feb 11
First Quarter
Feb 18
Full

Hourly Weather History & Observations

Time (EST) Temp. Windchill Dew Point Humidity Pressure Visibility Wind Dir Wind Speed Gust Speed Precip Events Conditions
12:14 AM 8.6 °F - 3.2 °F 79% 30.07 in 10.0 mi Calm Calm - N/A   Overcast
12:34 AM 8.6 °F - 3.2 °F 79% 30.07 in 7.0 mi Calm Calm - N/A Snow Light Snow
12:55 AM 10.4 °F 2.2 °F 3.2 °F 73% 30.07 in 7.0 mi ENE 4.6 mph - N/A Snow Light Snow
1:14 AM 10.4 °F - 5.0 °F 79% 30.07 in 7.0 mi Calm Calm - N/A Snow Light Snow
1:34 AM 10.4 °F 2.2 °F 5.0 °F 79% 30.06 in 10.0 mi NE 4.6 mph - N/A   Overcast
1:55 AM 10.4 °F 2.2 °F 5.0 °F 79% 30.06 in 10.0 mi ENE 4.6 mph - N/A   Overcast
2:14 AM 8.6 °F 2.0 °F 3.2 °F 79% 30.06 in 10.0 mi East 3.5 mph - N/A   Overcast
2:34 AM 8.6 °F 0.1 °F 3.2 °F 79% 30.06 in 10.0 mi ENE 4.6 mph - N/A   Overcast
2:55 AM 8.6 °F - 3.2 °F 79% 30.06 in 10.0 mi Calm Calm - N/A   Overcast
3:34 AM 8.6 °F 0.1 °F 3.2 °F 79% 30.04 in 10.0 mi ENE 4.6 mph - N/A Snow Light Snow
3:55 AM 10.4 °F 4.0 °F 5.0 °F 79% 30.04 in 7.0 mi NE 3.5 mph - N/A Snow Light Snow
4:14 AM 10.4 °F -0.4 °F 5.0 °F 79% 30.04 in 4.0 mi ENE 6.9 mph - N/A Snow Light Snow
4:34 AM 10.4 °F 0.8 °F 5.0 °F 79% 30.03 in 4.0 mi ENE 5.8 mph - N/A Snow Light Snow
4:55 AM 10.4 °F 0.8 °F 5.0 °F 79% 30.03 in 5.0 mi ENE 5.8 mph - N/A Snow Light Snow
5:14 AM 10.4 °F 0.8 °F 5.0 °F 79% 30.02 in 4.0 mi ENE 5.8 mph - N/A Snow Light Snow
5:34 AM 10.4 °F 2.2 °F 6.8 °F 85% 30.01 in 4.0 mi East 4.6 mph - N/A Snow Light Snow
5:54 AM 10.4 °F 4.0 °F 6.8 °F 85% 30.01 in 4.0 mi ENE 3.5 mph - N/A Snow Light Snow
6:14 AM 10.4 °F 4.0 °F 6.8 °F 85% 30.01 in 4.0 mi ENE 3.5 mph - N/A Snow Light Snow
6:34 AM 10.4 °F 4.0 °F 6.8 °F 85% 30.01 in 7.0 mi ENE 3.5 mph - N/A Snow Light Snow
6:55 AM 12.2 °F 2.9 °F 6.8 °F 79% 30.00 in 5.0 mi ENE 5.8 mph - N/A Snow Light Snow
7:14 AM 12.2 °F 2.9 °F 6.8 °F 79% 29.99 in 4.0 mi ENE 5.8 mph - N/A Snow Light Snow
7:34 AM 12.2 °F 4.3 °F 6.8 °F 79% 29.99 in 5.0 mi ENE 4.6 mph - N/A Snow Light Snow
7:54 AM 12.2 °F - 8.6 °F 85% 29.99 in 5.0 mi Calm Calm - N/A Snow Light Snow
8:14 AM 12.2 °F 2.9 °F 8.6 °F 85% 29.99 in 10.0 mi ENE 5.8 mph - N/A Snow Light Snow
8:35 AM 14.0 °F - 8.6 °F 79% 29.99 in 10.0 mi Calm Calm - N/A Snow Light Snow
8:54 AM 14.0 °F 8.2 °F 8.6 °F 79% 29.98 in 3.0 mi NE 3.5 mph - N/A Snow Light Snow
9:14 AM 14.0 °F - 10.4 °F 86% 29.97 in 7.0 mi Calm Calm - N/A Snow Light Snow
9:35 AM 15.8 °F - 12.2 °F 86% 29.96 in 10.0 mi Calm Calm - N/A Snow Light Snow
9:54 AM 17.6 °F 10.7 °F 12.2 °F 79% 29.95 in 10.0 mi East 4.6 mph - N/A   Overcast
10:14 AM 19.4 °F - 14.0 °F 80% 29.94 in 10.0 mi Calm Calm - N/A   Overcast
10:34 AM 21.2 °F 11.7 °F 15.8 °F 80% 29.94 in 10.0 mi South 8.1 mph - N/A Snow Light Snow
10:54 AM 21.2 °F 8.9 °F 15.8 °F 80% 29.94 in 7.0 mi SSW 12.7 mph 18.4 mph N/A Snow Light Snow
11:14 AM 21.2 °F 9.5 °F 15.8 °F 80% 29.94 in 5.0 mi SSW 11.5 mph 18.4 mph N/A Snow Light Snow
11:35 AM 21.2 °F 9.5 °F 15.8 °F 80% 29.92 in 2.5 mi SSW 11.5 mph 16.1 mph N/A Snow Light Snow
11:54 AM 21.2 °F 9.5 °F 15.8 °F 80% 29.91 in 2.5 mi SSW 11.5 mph - N/A Snow Light Snow
12:14 PM 23.0 °F 12.4 °F 15.8 °F 74% 29.89 in 3.0 mi SSW 10.4 mph 16.1 mph N/A Snow Light Snow
12:35 PM 23.0 °F 10.6 °F 15.8 °F 74% 29.88 in 5.0 mi SSW 13.8 mph 20.7 mph N/A Snow Light Snow
12:54 PM 23.0 °F 10.1 °F 15.8 °F 74% 29.87 in 10.0 mi SSW 15.0 mph 19.6 mph N/A Snow Light Snow
1:14 PM 23.0 °F 11.7 °F 15.8 °F 74% 29.86 in 10.0 mi SSW 11.5 mph 17.3 mph N/A Snow Light Snow
1:34 PM 23.0 °F 11.1 °F 15.8 °F 74% 29.84 in 10.0 mi SW 12.7 mph - N/A Snow Light Snow
1:54 PM 23.0 °F 12.4 °F 15.8 °F 74% 29.83 in 5.0 mi SW 10.4 mph 16.1 mph N/A Snow Light Snow
2:14 PM 23.0 °F 11.1 °F 15.8 °F 74% 29.81 in 7.0 mi SSW 12.7 mph 19.6 mph N/A Snow Light Snow
2:34 PM 23.0 °F 10.6 °F 15.8 °F 74% 29.80 in 4.0 mi SW 13.8 mph 19.6 mph N/A Snow Light Snow
2:54 PM 23.0 °F 11.7 °F 15.8 °F 74% 29.79 in 7.0 mi SW 11.5 mph - N/A Snow Light Snow
3:15 PM 23.0 °F 12.4 °F 17.6 °F 80% 29.79 in 4.0 mi SSW 10.4 mph 17.3 mph N/A Snow Light Snow
3:34 PM 23.0 °F 11.7 °F 17.6 °F 80% 29.78 in 7.0 mi SSW 11.5 mph 19.6 mph N/A Snow Light Snow
3:54 PM 23.0 °F 11.1 °F 17.6 °F 80% 29.77 in 3.0 mi SW 12.7 mph 17.3 mph N/A Snow Light Snow
4:15 PM 23.0 °F 11.7 °F 17.6 °F 80% 29.77 in 2.5 mi SW 11.5 mph 17.3 mph N/A Snow Light Snow
4:34 PM 23.0 °F 11.1 °F 17.6 °F 80% 29.76 in 1.8 mi SW 12.7 mph 20.7 mph N/A Snow Light Snow
4:54 PM 23.0 °F 13.1 °F 17.6 °F 80% 29.76 in 4.0 mi SW 9.2 mph - N/A Snow Light Snow
5:14 PM 23.0 °F 11.7 °F 17.6 °F 80% 29.75 in 1.2 mi SW 11.5 mph 17.3 mph N/A Snow Light Snow
5:34 PM 23.0 °F 12.4 °F 17.6 °F 80% 29.74 in 1.0 mi SW 10.4 mph 17.3 mph N/A Snow Snow
5:54 PM 23.0 °F 12.4 °F 19.4 °F 86% 29.74 in 1.0 mi SW 10.4 mph - N/A Snow Snow
6:15 PM 23.0 °F 10.6 °F 19.4 °F 86% 29.73 in 1.2 mi SW 13.8 mph 18.4 mph N/A Snow Light Snow
6:34 PM 23.0 °F 11.1 °F 19.4 °F 86% 29.73 in 1.0 mi SW 12.7 mph 17.3 mph N/A Snow Snow
6:54 PM 21.2 °F 11.7 °F 17.6 °F 86% 29.73 in 0.8 mi West 8.1 mph 16.1 mph N/A Snow Snow
7:15 PM 21.2 °F 12.6 °F 17.6 °F 86% 29.72 in 1.0 mi West 6.9 mph - N/A Snow Snow
7:34 PM 21.2 °F 12.6 °F 17.6 °F 86% 29.71 in 2.0 mi WNW 6.9 mph - N/A Snow Light Snow
7:54 PM 21.2 °F 11.7 °F 15.8 °F 80% 29.71 in 2.5 mi WNW 8.1 mph - N/A Snow Light Snow
8:14 PM 21.2 °F 10.9 °F 14.0 °F 74% 29.71 in 5.0 mi NW 9.2 mph - N/A Snow Light Snow
8:34 PM 19.4 °F 8.6 °F 12.2 °F 74% 29.71 in 10.0 mi WNW 9.2 mph - N/A Snow Light Snow
8:54 PM 19.4 °F 10.4 °F 12.2 °F 74% 29.70 in 10.0 mi WNW 6.9 mph - N/A   Overcast
9:15 PM 19.4 °F 10.4 °F 12.2 °F 74% 29.70 in 4.0 mi WNW 6.9 mph - N/A Snow Light Snow
9:55 PM 19.4 °F 9.5 °F 14.0 °F 80% 29.69 in 1.2 mi WNW 8.1 mph - N/A Snow Light Snow
10:14 PM 19.4 °F 6.6 °F 14.0 °F 80% 29.69 in 0.8 mi West 12.7 mph 16.1 mph N/A Snow Snow
10:34 PM 17.6 °F 9.3 °F 12.2 °F 79% 29.70 in 1.5 mi West 5.8 mph - N/A Snow Light Snow
10:55 PM 17.6 °F 5.7 °F 12.2 °F 79% 29.70 in 1.5 mi WNW 10.4 mph 16.1 mph N/A Snow Light Snow
11:14 PM 17.6 °F 3.7 °F 12.2 °F 79% 29.70 in 1.5 mi WNW 13.8 mph 19.6 mph N/A Snow Light Snow
11:54 PM 17.6 °F 5.7 °F 10.4 °F 73% 29.71 in 4.0 mi WNW 10.4 mph - N/A Snow Light Snow